Weather in Chiri-Yurt

Russia / Chechen Republic     43°05′13″N   45°44′36″E
temp.,
°C
wind,
m/s
gust,
m/s
humid.,
%
clouds,
%
prec.,
mm/h
press.,
hPa
HPBL,
m
14 april, wed
wed1400:00+7sse11905 0.2 101813
03:00+6sse00928 0.3 101610
06:00+6ssw119462 0.0 101755
09:00+11nw247793 0.2 1017875
12:00+9wnw2473100 0.2 1018921
15:00+9sse2279100 1.6 1018391
18:00+9ssw2379100 0.2 1018126
21:00+7s3283100 0.2 101940
15 april, thu
thu1500:00+6s22821 0.0 101830
03:00+5s337735 0.0 101941
06:00+5s33692 0.0 102054
09:00+14nnw11460 0.0 1018795
12:00+17n33365 0.0 10161565
15:00+17n32375 0.0 10161854
18:00+13ne115493 0.0 101715
21:00+10s2262100 0.0 101815
16 april, fri
fri1600:00+9s226889 0.0 101829
03:00+8s33668 0.0 101836
06:00+8s23615 0.0 101942
09:00+15nne224579 0.0 1018795
12:00+18nne434112 0.0 10161606
15:00+19ne434439 0.1 10151641
18:00+14ne22660 0.3 101651
21:00+11s227691 0.4 101835
17 april, sat
sat1700:00+9s22747 0.3 102025
03:00+9s22695 0.3 101928
06:00+9sw1170100 0.0 101926
09:00+13nw3366100 0.0 1020782
12:00+13nw3367100 0.1 10211288
15:00+10wnw1290100 0.6 1022310
18:00+9w0194100 0.5 1022148
21:00+9nw1297100 1.0 1023227
18 april, sun
sun1800:00+8n0198100 0.4 1022131
03:00+8nne1198100 0.5 1021132
06:00+8ne1198100 0.0 1021113
09:00+10ne0190100 0.0 1019270
12:00+10n2293100 0.1 1019480
15:00+11ne128893 0.3 1018406
18:00+11w1186100 0.0 101976
21:00+10nnw009358 0.1 101810